Theta_e
332 332 331 330 330 330 331 332 333 335 336 336 337 336 336 336 334 332 333 334 333 332 332 332 330 331 332 331 330 332 332 333 334 336 337 339 340 339 340 340 340 339 339 339 339 337 337 337 336 336 337 337 336 336 337 337 336 336 334 333 331 329 329 332 332 332 328 325 329 329 328 330 332 331 331 332 335 336 337 335 335 335 334 333 335
329 329 328 329 329 330 330 331 332 331 333 335 334 335 335 335 333 332 333 334 333 332 331 332 332 332 331 330 330 331 331 331 331 334 336 338 339 339 340 340 340 339 339 339 339 337 335 335 335 335 337 337 336 336 336 335 335 334 333 331 332 330 328 331 332 332 327 325 322 322 325 328 330 331 330 331 334 334 336 336 336 334 334 335 336
329 329 328 327 328 329 329 330 332 334 334 334 335 334 334 334 333 332 333 333 333 333 332 332 333 334 333 331 331 330 333 334 334 336 337 336 338 339 340 340 339 338 338 338 338 337 337 336 335 336 336 337 335 334 334 333 334 334 334 331 327 330 329 332 332 333 326 327 327 323 320 320 325 327 330 330 332 335 336 335 335 334 334 335 334
327 326 325 326 327 328 329 329 332 333 333 333 333 333 333 333 333 333 333 333 333 333 333 334 334 335 334 333 333 332 331 333 334 335 335 336 336 337 338 338 338 338 338 338 338 337 337 336 336 335 335 336 336 334 333 332 333 334 334 333 332 326 327 328 331 332 330 326 320 321 320 320 316 320 323 327 332 331 332 333 334 332 331 332 333
328 326 325 324 325 327 328 329 332 331 332 332 332 332 332 332 332 332 332 332 333 333 332 333 332 331 331 331 332 331 332 332 331 331 333 334 334 335 336 337 338 338 338 338 338 337 337 337 336 336 335 334 335 336 334 334 334 336 335 334 333 330 326 328 328 332 332 333 326 319 318 317 318 319 321 323 329 329 330 331 332 330 330 331 331
328 326 325 324 325 327 328 330 331 330 331 332 333 333 332 332 333 333 332 332 332 332 332 332 331 330 329 328 327 328 327 327 328 328 329 331 332 335 336 337 338 338 338 338 337 337 337 337 337 336 335 334 335 337 336 335 335 336 335 336 334 334 330 327 326 330 331 331 331 330 329 322 319 321 320 314 325 327 328 329 329 329 330 330 331
327 327 325 324 325 326 327 329 331 329 331 333 333 332 332 332 332 332 331 331 331 331 332 332 331 332 332 332 332 330 328 329 332 332 332 333 335 334 335 338 338 338 338 338 337 337 337 337 337 336 336 336 336 337 335 335 335 337 337 336 335 334 332 329 327 327 328 329 329 331 333 331 329 322 318 320 316 324 327 326 326 327 328 328 329
326 325 324 325 325 326 326 329 330 330 332 333 332 331 331 331 331 330 330 330 331 331 331 332 332 333 334 334 333 332 331 330 331 333 335 334 334 334 335 336 337 338 337 336 337 337 336 337 337 337 335 335 335 335 336 337 337 337 337 337 337 335 334 332 330 329 326 326 328 330 331 332 331 330 328 324 320 316 317 323 326 327 327 327 328
326 323 323 324 324 326 327 329 330 331 332 332 332 330 331 331 330 330 330 330 330 331 331 333 334 334 334 333 332 333 333 332 332 332 333 335 333 333 333 333 334 335 337 337 337 336 336 336 336 335 335 335 334 334 335 335 337 336 334 334 334 335 335 335 333 330 331 328 327 328 329 328 328 330 330 328 321 318 316 318 318 324 325 325 325
323 323 323 324 325 327 329 331 330 331 333 333 332 331 330 330 329 329 329 330 330 331 332 334 334 334 334 334 333 330 331 331 332 332 333 334 332 331 331 331 332 333 335 335 335 334 334 335 334 335 335 333 332 333 334 335 335 336 335 334 334 335 335 334 333 333 333 332 331 330 328 327 326 325 325 325 324 324 317 318 320 320 317 319 323
321 322 323 324 326 328 328 329 329 331 332 331 331 330 329 329 328 329 329 330 331 331 332 333 333 334 334 334 333 331 331 331 330 331 331 331 329 329 330 329 330 331 332 333 333 331 333 333 334 333 333 333 331 332 333 332 333 334 334 334 333 333 333 333 333 333 333 332 331 330 329 328 326 324 324 325 323 320 319 319 320 320 319 317 319
320 321 321 323 325 327 328 328 329 330 330 330 330 330 329 329 328 327 328 329 331 332 333 332 332 333 334 334 332 332 332 331 330 329 330 330 330 327 327 327 327 329 330 331 330 331 332 332 332 332 331 332 331 332 332 332 332 331 332 333 333 334 334 333 334 332 332 332 332 332 331 332 330 329 327 328 325 323 322 319 318 319 319 318 319
317 317 317 318 322 324 325 327 328 328 328 329 329 329 329 329 328 327 327 329 330 331 333 332 332 332 332 332 332 332 333 333 332 331 331 330 329 327 325 325 325 326 327 329 329 330 331 330 331 330 330 331 330 329 329 328 329 329 330 330 331 332 332 334 332 333 333 332 331 332 331 329 330 331 330 329 328 326 323 319 319 320 317 317 319
319 320 320 320 323 323 325 325 327 327 328 328 329 329 329 329 328 327 327 330 330 331 331 330 331 332 332 332 331 331 332 332 331 331 331 330 329 327 327 325 325 327 327 329 328 328 329 330 331 331 330 328 327 327 327 326 326 325 327 327 328 329 330 333 333 334 334 334 334 331 331 329 330 330 330 329 326 324 321 320 318 318 318 315 317
318 318 319 322 322 323 324 324 325 327 328 329 330 329 330 328 327 324 323 326 328 330 329 329 330 331 331 332 331 332 330 330 331 331 330 328 328 328 327 327 326 325 327 327 326 328 327 327 329 328 327 327 326 326 325 325 326 323 323 325 324 325 326 328 329 330 330 329 332 332 332 330 330 329 329 329 328 327 324 322 319 314 314 316 315
321 321 322 323 323 323 324 324 326 327 329 329 329 330 329 327 324 323 322 322 323 326 328 329 329 330 330 331 331 330 329 330 329 329 329 330 328 328 327 326 326 325 326 326 326 327 326 327 326 326 326 326 326 325 325 324 325 324 323 324 322 321 324 324 324 325 327 328 330 331 331 329 331 330 330 330 329 329 327 325 323 319 314 312 315
321 321 321 324 324 324 325 325 326 327 329 329 329 330 329 324 324 324 322 321 321 323 327 328 328 327 328 330 330 329 328 328 328 328 328 328 328 328 326 325 326 326 325 326 326 327 328 327 326 325 326 326 326 326 325 324 324 324 323 323 322 323 324 322 324 325 325 326 327 330 330 330 330 331 330 330 330 330 328 328 325 321 319 315 312
321 321 322 323 324 325 325 326 327 328 329 328 329 330 330 328 328 327 324 321 321 322 324 326 326 327 328 329 330 329 328 328 328 327 327 325 324 325 325 324 324 325 324 324 326 326 326 325 326 325 325 326 326 325 323 323 324 322 323 322 322 324 322 322 322 323 325 327 327 328 329 329 330 330 330 331 330 329 327 327 324 324 322 316 315
320 320 321 322 324 324 325 326 328 328 330 330 328 327 327 328 330 329 326 325 323 323 324 326 327 328 329 329 329 328 328 327 326 326 325 324 323 324 324 325 324 324 324 324 326 325 326 325 325 324 324 324 324 324 324 323 324 323 323 321 323 324 323 322 322 322 323 327 328 328 329 328 330 331 330 330 330 329 327 325 323 323 322 323 317
320 321 321 322 322 324 326 326 326 328 328 327 328 328 326 328 329 328 327 326 324 323 324 324 326 327 327 328 328 327 326 325 325 323 323 323 322 323 324 324 325 324 325 326 325 324 325 324 323 322 323 323 322 323 323 323 324 324 323 321 322 323 320 321 321 321 319 325 327 327 327 327 328 329 329 329 328 329 328 324 323 322 321 324 320
317 319 321 321 322 324 325 327 327 328 328 326 325 326 328 328 328 327 326 327 325 325 325 325 325 326 326 326 326 326 325 325 325 325 325 324 323 324 325 325 324 323 324 325 325 325 323 324 322 322 321 322 322 323 324 323 322 322 323 322 321 320 319 320 322 322 321 323 325 325 324 325 328 328 328 328 327 327 327 326 324 322 321 321 318
315 316 316 317 318 320 321 322 324 326 325 326 325 327 327 327 327 327 327 327 326 325 325 325 325 326 326 326 326 326 325 324 325 325 325 323 324 324 325 324 324 323 325 324 324 324 324 323 322 321 322 321 322 322 323 322 321 322 322 322 322 320 320 321 323 320 321 321 325 324 322 324 326 327 328 326 327 325 324 323 324 323 320 320 323
313 314 315 316 317 318 319 321 322 322 324 325 323 324 326 328 328 328 327 327 327 327 326 326 325 325 326 326 326 325 324 324 324 324 324 323 324 324 324 324 323 323 324 325 324 324 323 322 322 321 320 321 321 321 323 322 322 321 320 321 323 322 321 322 322 320 318 321 322 323 323 324 324 325 326 326 326 326 324 323 324 324 322 322 319
311 311 312 314 317 319 319 319 319 319 319 320 321 322 324 327 327 327 326 326 326 326 326 326 325 325 326 326 325 325 324 324 324 324 324 324 324 323 323 324 323 323 322 324 324 322 321 322 321 320 320 320 321 322 322 321 320 320 320 320 320 321 322 322 320 319 319 321 321 321 322 323 325 325 324 324 324 325 325 324 325 324 324 323 323
308 308 307 308 310 311 315 317 317 317 317 317 319 320 320 321 322 323 323 324 325 326 326 326 326 325 325 325 326 325 324 324 325 324 324 323 323 323 323 323 324 323 323 323 321 321 321 320 321 319 319 320 321 321 321 322 323 323 322 323 322 320 322 322 323 323 323 322 323 322 320 320 322 323 323 322 322 323 321 322 323 322 322 323 321
305 306 306 306 307 309 311 314 317 317 318 317 318 319 320 320 321 322 322 323 324 325 325 325 325 324 323 324 325 325 324 324 325 324 324 322 323 323 323 324 323 322 322 322 321 320 320 320 321 320 320 320 322 323 321 322 322 323 324 324 324 324 322 321 323 324 323 325 323 322 322 321 321 321 321 321 321 321 319 319 319 318 318 321 320
303 304 305 306 306 307 309 311 316 317 318 318 318 318 318 317 318 320 322 322 323 323 323 323 324 324 323 324 324 325 325 323 323 322 322 321 321 323 322 322 323 323 320 319 320 320 322 321 321 322 322 322 323 323 325 325 324 324 324 324 324 325 325 326 325 325 325 326 325 324 324 323 322 322 322 322 322 322 321 320 320 321 318 319 319
302 303 303 303 304 305 306 309 312 315 317 318 319 320 318 317 316 317 318 320 321 322 322 323 323 322 320 321 321 320 319 320 319 320 320 320 320 321 322 323 323 323 322 321 320 320 321 322 323 323 324 325 325 325 325 326 326 326 326 326 325 325 326 327 327 327 328 327 326 325 325 324 324 323 324 324 324 322 321 321 321 320 319 319 319
300 300 301 301 301 303 304 306 308 311 312 314 316 318 318 317 317 317 319 319 319 320 319 320 320 318 317 318 321 321 322 321 320 320 322 321 322 321 320 320 321 322 323 323 321 321 320 320 321 325 325 327 327 328 327 327 326 326 327 327 326 325 326 326 326 326 327 327 326 327 326 324 325 323 315 318 319 319 323 321 321 321 320 319 319
298 298 298 299 300 300 301 301 302 304 307 308 309 310 313 315 317 318 318 318 320 318 318 317 317 317 318 318 319 317 318 320 320 321 322 321 319 320 321 320 320 320 321 320 320 320 320 321 321 321 324 325 326 327 319 312 316 326 328 328 327 326 326 326 326 326 326 326 328 328 328 321 317 314 310 305 304 306 311 320 323 321 319 319 318
298 298 298 298 298 298 298 299 300 300 301 303 304 305 307 308 311 316 317 318 319 317 317 316 316 317 318 318 318 317 317 316 316 317 316 316 317 319 320 319 320 319 320 320 320 319 320 321 321 321 321 323 324 323 299 296 298 308 324 328 326 327 327 326 326 326 326 327 327 326 328 322 319 315 313 300 301 301 301 302 308 311 315 320 318
297 297 297 296 296 297 297 297 299 299 300 300 301 302 303 303 304 306 309 312 313 314 315 315 315 316 318 317 317 317 318 318 318 318 318 318 319 319 319 319 319 319 318 319 319 318 319 320 321 321 322 323 325 305 298 296 297 299 308 327 328 327 327 326 326 326 326 326 326 326 327 327 327 327 324 315 305 297 297 298 298 299 300 298 301
296 297 296 296 296 296 297 297 297 298 298 299 300 301 301 301 301 302 303 303 303 305 307 309 314 315 316 315 316 317 317 318 318 318 318 317 318 318 318 317 317 317 317 318 318 319 320 321 321 320 321 321 324 298 297 295 296 297 298 310 325 326 326 326 326 326 326 326 326 326 327 326 322 314 317 322 319 311 297 294 295 295 295 295 295
296 296 296 296 296 296 297 297 297 298 298 298 299 299 299 301 301 301 301 301 301 301 301 301 303 306 312 317 318 318 317 316 317 318 318 318 318 318 317 316 317 317 317 317 318 320 319 320 320 321 320 321 324 299 295 295 296 295 294 303 322 324 325 326 326 326 326 326 326 325 325 325 324 322 322 320 319 317 314 312 314 316 315 306 297
294 295 296 296 297 297 297 297 297 298 298 298 297 298 298 298 299 299 299 299 299 299 299 299 300 301 303 306 310 314 315 315 315 316 316 316 317 317 318 317 319 320 320 320 321 320 320 320 321 321 322 323 323 295 295 294 294 294 293 301 319 320 322 323 324 325 325 325 325 325 325 325 325 323 320 317 319 318 318 317 316 314 314 313 314
294 294 295 296 296 296 297 297 298 297 297 297 297 298 297 297 298 298 298 298 298 297 298 298 298 299 300 301 303 304 305 307 308 309 311 313 314 314 316 317 319 320 320 321 321 322 321 320 320 321 321 322 318 292 294 293 293 293 293 312 317 318 320 321 322 323 323 324 324 325 324 324 325 323 308 299 308 318 318 316 314 313 312 311 306
295 295 295 296 297 297 297 298 298 298 297 297 298 298 296 296 296 296 296 296 297 296 297 297 298 298 299 299 299 300 301 303 304 304 304 306 310 312 313 316 319 318 318 318 319 319 320 320 320 320 321 320 321 300 293 293 293 292 299 316 316 317 316 317 319 320 321 323 324 324 324 324 324 322 303 295 297 304 317 316 315 313 312 310 306
295 296 296 297 297 297 297 297 296 297 297 297 297 298 297 296 295 295 295 295 295 295 296 296 296 298 298 299 299 299 299 300 300 301 302 303 304 305 307 311 315 315 314 314 317 318 319 319 318 318 316 318 319 301 292 292 293 291 299 314 315 316 316 316 318 319 320 321 321 314 316 323 322 321 295 294 295 306 316 315 314 312 310 308 305
295 295 295 295 296 297 297 297 297 296 297 298 298 297 296 295 296 295 294 294 294 294 295 295 295 297 297 298 299 299 299 298 298 299 300 301 302 303 303 304 307 310 310 311 312 314 313 312 312 313 308 313 315 303 293 293 292 292 300 310 312 315 315 316 317 318 319 319 321 316 307 311 317 313 292 294 294 304 317 315 314 313 310 307 305
295 295 295 295 296 295 294 294 294 295 296 297 297 296 295 295 295 295 294 294 294 295 295 296 296 297 297 297 298 298 298 298 298 298 299 299 300 300 300 301 302 305 306 306 307 309 309 308 309 311 309 309 311 311 300 291 292 292 292 304 310 314 317 318 318 317 318 320 319 320 313 298 297 297 293 293 293 295 314 316 313 312 311 308 307
293 293 293 293 293 293 293 293 294 294 295 295 296 295 294 294 294 293 293 294 295 296 296 296 297 297 297 298 298 299 299 299 299 299 299 300 300 300 301 300 301 303 305 305 307 307 306 305 306 307 308 308 308 310 303 291 291 291 290 293 307 311 315 315 316 316 317 318 318 318 319 303 294 294 293 292 293 293 299 315 315 314 313 309 303
292 292 292 292 292 292 292 292 294 294 294 294 294 293 293 293 293 293 293 295 295 295 295 296 296 296 296 297 297 298 300 301 301 301 301 301 302 302 303 303 303 304 303 303 303 305 305 305 306 306 305 305 306 301 307 293 290 290 290 290 302 308 304 310 312 314 314 315 315 315 316 302 294 294 292 292 292 293 294 311 314 299 293 294 306
291 291 291 291 290 290 291 291 293 294 294 295 295 293 293 293 292 293 294 294 294 294 294 294 294 294 295 296 296 297 298 299 300 301 301 301 301 302 302 303 303 304 304 304 303 304 305 305 305 305 305 305 306 304 293 300 291 289 289 289 289 295 291 306 310 311 312 312 313 312 309 293 293 292 292 291 292 291 293 307 292 290 292 293 298
291 292 292 292 291 292 291 292 293 293 293 294 294 293 293 293 293 294 295 295 295 295 295 294 294 293 293 294 294 295 296 297 298 300 300 300 300 301 301 301 301 301 301 301 302 303 303 303 303 303 304 304 305 305 297 290 294 288 288 288 288 288 289 305 309 310 311 310 311 311 302 290 292 292 292 292 292 292 299 291 289 290 291 295 304
291 291 292 293 293 292 292 292 292 293 293 293 293 292 291 291 292 294 294 294 294 294 294 294 294 294 294 294 294 294 295 296 296 297 297 297 298 299 299 299 300 299 299 298 298 299 300 300 300 300 301 302 303 304 304 297 291 291 290 289 289 288 289 288 302 307 306 304 294 289 288 289 289 290 290 291 292 291 289 289 289 290 294 301 302
292 292 292 292 293 293 293 292 292 293 293 294 294 293 291 291 292 293 293 293 293 293 293 293 293 293 293 294 294 295 296 297 297 297 296 296 295 295 295 296 297 298 298 297 297 297 298 299 299 300 299 300 301 302 303 303 298 297 296 292 291 290 292 291 294 297 290 288 288 289 288 289 290 294 302 302 300 297 289 289 289 292 302 304 303
291 292 292 293 293 292 292 292 291 292 293 293 293 293 293 293 293 293 294 294 293 293 292 293 293 293 294 295 295 294 295 296 296 296 297 296 296 296 296 294 294 295 295 295 296 297 297 297 297 297 297 297 297 298 301 302 300 299 299 299 301 302 293 291 300 299 294 297 294 295 295 292 291 290 291 291 291 291 294 295 296 296 297 299 301
292 292 293 293 293 292 292 292 291 292 293 293 293 292 293 293 293 293 294 294 293 293 293 293 293 294 294 295 294 289 292 294 294 294 294 294 295 295 294 293 292 293 293 294 294 294 295 295 294 295 295 297 297 298 298 297 296 295 295 296 298 300 302 303 302 303 302 299 296 289 291 296 295 294 295 296 296 296 294 293 297 297 297 297 295
293 293 293 293 292 292 292 291 291 292 292 292 292 292 293 293 293 293 293 293 292 292 293 293 294 294 294 294 294 294 293 294 294 294 293 293 293 293 293 292 292 293 292 293 294 293 293 294 294 295 294 296 297 297 297 291 292 289 290 294 296 298 301 302 299 295 299 298 298 297 296 295 294 290 291 294 295 296 293 294 295 296 296 297 297
293 293 293 293 293 293 292 291 291 292 292 292 292 292 293 293 293 293 293 292 292 292 293 293 294 294 293 293 293 293 293 293 294 294 293 292 287 288 290 292 292 289 288 288 288 291 292 293 293 295 296 294 295 295 290 288 288 289 289 289 289 290 290 293 293 289 295 298 296 296 296 295 293 291 290 290 291 293 292 292 293 290 293 297 297
292 292 292 292 292 292 292 291 291 292 291 291 291 291 292 293 293 293 293 292 293 292 293 294 293 292 291 293 293 293 293 293 293 293 294 293 293 290 286 287 288 288 288 287 287 287 287 287 290 293 294 289 288 288 288 288 288 289 289 289 289 289 289 289 289 292 294 296 297 296 296 296 295 295 292 291 290 291 291 291 291 291 292 291 289
Wind_Speed
6 5 8 10 9 8 7 6 7 7 8 9 10 10 11 10 9 9 9 9 9 9 10 9 8 6 6 8 8 7 6 5 5 5 5 6 6 6 6 6 6 6 7 6 6 6 6 6 6 6 6 6 6 7 6 5 5 5 5 5 6 6 6 5 7 7 8 8 7 8 8 7 7 8 8 6 5 4 4 4 4 4 4 4 3
7 5 8 10 9 9 9 8 9 9 8 9 10 11 11 10 11 9 8 9 10 9 9 9 7 9 9 8 7 7 7 6 6 5 6 6 7 6 6 6 7 7 6 6 6 6 6 6 6 6 6 6 5 5 5 5 6 6 6 5 4 5 5 6 7 6 5 5 6 6 8 6 7 6 6 6 5 4 4 5 5 4 4 4 3
9 8 8 8 9 9 8 9 9 9 9 9 9 11 11 11 9 9 8 10 9 8 8 8 8 8 8 8 8 6 5 5 6 6 7 7 6 7 6 6 7 7 7 7 6 6 6 6 6 5 5 5 5 6 5 5 5 7 8 6 5 3 4 5 6 2 4 5 5 6 5 4 4 5 5 6 5 5 5 5 5 5 5 4 4
11 10 9 9 9 9 9 9 9 9 9 9 10 11 10 9 8 8 10 10 9 9 7 9 9 8 7 8 8 6 6 6 6 6 7 7 7 6 6 6 7 7 8 8 6 5 6 5 5 5 5 5 5 6 6 6 5 6 5 6 7 6 5 5 3 1 3 7 6 1 4 3 5 4 5 5 5 6 6 6 5 4 6 5 4
11 9 9 9 9 9 9 9 10 9 9 9 9 9 7 9 8 8 9 10 9 9 10 10 10 9 8 8 7 7 6 6 6 6 6 6 6 6 6 7 7 7 8 7 6 6 5 5 5 5 5 4 4 4 4 5 6 5 6 6 7 6 6 5 5 3 5 2 3 5 3 4 2 6 7 4 4 5 6 7 7 6 6 6 5
12 10 9 9 9 9 9 10 11 9 9 8 9 8 8 8 8 8 7 9 9 11 11 9 9 9 10 9 8 7 7 7 8 8 7 7 7 7 7 8 8 7 6 6 5 5 5 5 5 5 5 4 4 3 4 4 5 5 6 5 6 6 6 7 6 4 4 1 2 5 3 2 7 7 5 4 3 5 6 6 7 5 5 5 5
3 7 7 8 9 9 9 9 11 10 9 9 8 8 10 9 10 8 7 7 9 10 11 8 10 9 11 10 10 9 9 7 6 7 8 7 7 7 7 6 6 7 6 5 5 5 5 5 5 5 5 4 4 3 4 5 4 5 4 5 5 5 5 6 7 6 5 2 1 2 3 1 5 8 4 8 6 4 5 6 7 7 6 6 6
9 8 7 8 8 9 10 9 10 10 9 9 8 9 10 10 9 8 7 8 9 10 10 10 10 9 9 8 8 8 9 9 8 8 7 6 7 7 6 5 4 5 5 5 5 5 5 4 4 3 4 4 4 4 4 4 3 3 4 4 4 5 6 5 5 6 7 6 2 1 2 3 5 1 6 4 6 7 6 7 6 6 7 7 7
8 5 6 7 8 8 9 9 10 12 10 10 9 9 9 9 8 8 9 9 9 11 11 11 9 10 9 8 8 7 7 8 8 7 7 6 7 5 5 5 3 2 3 4 3 4 4 4 4 4 3 3 3 3 2 3 4 4 5 5 5 5 5 4 4 5 6 5 5 3 3 4 3 2 3 3 6 8 7 6 7 8 8 7 6
4 3 4 5 6 6 9 8 10 9 9 10 9 9 9 9 9 9 10 8 10 11 11 11 9 7 7 7 8 8 8 8 8 8 7 7 7 6 5 4 3 3 2 3 4 4 4 4 4 4 3 2 2 2 2 2 2 3 4 5 5 5 4 4 5 3 4 4 5 5 5 5 4 4 4 4 5 4 6 8 7 7 6 5 6
4 4 5 6 5 6 10 9 7 8 8 9 8 9 9 9 10 10 10 9 10 12 11 11 9 8 7 8 9 11 11 11 10 8 8 7 8 6 5 4 3 4 3 3 3 3 3 3 4 4 3 3 3 3 3 3 3 3 3 4 5 6 4 4 3 3 4 5 5 5 5 6 5 6 7 7 6 5 8 7 7 7 7 6 5
7 7 6 5 6 6 10 8 8 6 7 8 7 9 10 9 9 10 9 9 10 10 11 9 8 7 7 9 9 9 11 11 12 11 10 9 8 6 4 4 3 3 3 3 3 3 4 4 4 4 3 3 3 2 2 2 2 2 3 3 3 4 3 4 4 4 6 4 4 3 3 3 2 3 5 6 5 7 7 9 8 7 7 6 5
12 10 10 7 3 3 4 12 10 8 6 8 7 8 9 9 9 10 10 10 9 10 10 8 8 8 8 9 9 8 8 8 9 9 7 7 7 6 6 5 4 4 3 4 4 4 4 5 4 4 3 2 2 2 2 2 2 2 3 4 4 5 4 5 4 6 7 5 4 4 3 3 2 2 5 5 5 6 8 9 7 6 7 7 6
9 7 7 9 9 7 6 7 10 10 8 8 7 7 8 8 8 8 8 9 8 7 6 7 7 7 8 8 8 7 7 7 7 8 7 5 5 6 6 5 5 4 4 4 4 4 3 3 4 3 3 4 3 3 2 1 1 2 3 4 4 3 2 4 3 4 4 3 3 4 4 3 2 3 5 6 7 8 8 9 9 7 7 7 6
10 9 9 8 10 9 8 5 7 10 10 10 9 7 6 8 6 6 6 3 4 7 6 7 6 7 7 7 7 6 7 7 6 7 7 7 5 5 4 4 4 3 4 4 4 4 4 3 4 4 4 4 4 3 2 2 2 2 3 3 3 2 2 2 2 3 3 3 4 4 3 3 2 4 6 6 7 7 9 10 11 11 8 5 5
9 10 11 10 10 6 4 6 3 9 11 10 10 9 8 7 10 10 9 5 2 5 8 8 7 6 8 8 8 7 6 6 6 5 6 6 7 6 5 3 3 4 3 5 4 4 5 5 4 5 4 4 4 4 4 3 2 3 3 4 4 2 3 4 3 2 2 2 3 3 3 3 3 5 5 5 5 6 7 8 7 10 11 8 5
9 9 9 9 10 8 7 6 3 7 10 10 10 10 10 10 12 13 13 12 14 11 8 8 8 8 9 9 8 8 8 9 8 8 7 5 4 4 5 4 4 4 5 4 5 4 4 5 6 5 4 4 4 4 4 4 3 3 4 4 5 4 4 4 2 2 2 2 2 3 3 4 3 4 4 5 5 5 6 5 3 4 7 9 8
10 10 9 8 7 7 9 6 6 7 10 9 11 10 10 10 11 14 14 14 11 7 4 5 8 8 8 8 8 8 8 8 8 8 7 6 5 4 4 5 4 4 5 4 5 6 5 5 5 5 4 4 4 4 4 5 4 4 4 4 4 4 5 4 3 2 2 2 3 3 3 4 4 5 4 5 5 5 5 4 2 3 4 6 6
9 10 9 8 8 9 9 8 8 8 7 10 8 9 8 9 9 10 10 5 8 6 7 6 7 6 6 8 9 7 7 7 7 8 8 8 8 6 6 5 5 5 6 6 6 6 5 5 5 5 5 5 4 4 4 4 4 4 4 4 3 3 4 4 3 3 2 2 4 5 4 4 4 4 5 5 5 5 5 4 3 2 2 2 6
7 9 7 7 7 8 9 12 11 11 9 9 12 11 11 9 7 7 6 4 4 4 5 7 6 5 5 6 6 7 7 7 7 8 7 8 8 8 7 7 6 5 6 6 6 6 6 6 5 6 5 5 5 4 5 5 4 4 3 4 3 4 5 4 4 3 2 3 5 5 5 5 4 5 5 5 6 5 4 4 4 3 2 1 4
6 6 5 3 5 6 5 7 9 8 9 8 8 11 11 9 8 9 9 8 7 4 5 6 6 7 8 8 8 7 7 6 7 8 8 7 7 7 7 6 6 5 6 6 6 6 6 6 6 6 6 6 6 5 4 5 5 4 4 4 4 4 5 4 3 4 3 3 4 6 5 4 4 5 5 5 6 6 5 3 4 3 3 3 3
7 6 4 4 2 2 3 4 2 6 9 10 9 8 8 9 9 9 10 10 9 9 6 6 6 7 9 8 8 7 7 6 7 7 6 7 7 6 7 7 7 6 6 7 6 5 5 6 5 5 5 5 6 6 5 5 5 5 4 2 3 4 5 4 3 4 4 2 2 4 5 4 4 5 6 7 6 6 7 6 5 4 4 4 1
7 5 5 6 6 4 2 3 4 6 8 9 8 2 5 8 10 8 10 10 9 7 7 7 8 8 8 8 8 7 7 7 8 6 7 7 6 6 7 8 7 6 5 5 6 6 6 5 5 5 5 5 5 5 4 5 5 5 5 4 3 3 4 5 5 4 4 4 4 4 4 4 3 4 4 3 4 6 6 7 6 4 4 4 3
10 8 7 7 7 6 6 4 3 5 4 4 5 8 7 6 7 7 8 9 9 6 6 7 7 7 8 9 9 8 9 8 8 6 7 6 6 6 6 7 7 6 6 4 5 6 5 5 5 5 5 5 5 5 5 5 6 5 5 5 3 3 3 3 4 5 4 3 4 4 3 3 4 5 4 4 4 4 5 4 5 4 5 6 4
10 11 11 11 11 9 6 6 6 7 7 6 3 5 3 2 3 4 6 7 8 5 6 6 7 8 7 8 9 9 10 9 8 7 7 6 6 6 5 6 6 6 5 5 4 4 5 6 5 6 6 6 5 6 5 5 4 4 4 3 3 3 3 2 2 3 3 4 4 4 5 4 4 4 3 4 4 5 5 4 5 4 5 6 5
11 12 13 12 9 7 7 8 6 6 7 7 5 4 5 4 4 4 4 6 7 6 5 5 6 7 7 8 8 8 9 10 8 6 7 6 6 5 6 5 6 6 4 4 6 5 6 6 6 6 6 6 5 5 5 5 5 4 4 3 2 2 2 2 2 1 2 2 3 4 4 4 4 4 4 2 2 3 3 3 4 4 4 5 6
12 12 11 12 13 12 11 10 8 9 8 7 5 6 6 6 5 5 2 3 4 4 4 4 5 7 6 5 5 6 6 8 8 5 3 3 4 4 6 6 5 5 5 4 3 3 3 5 6 6 5 5 5 4 4 4 5 4 4 3 3 3 3 2 1 1 1 1 2 3 4 4 4 4 5 4 4 3 2 3 3 3 4 5 6
12 14 14 12 10 11 12 11 12 11 8 7 6 6 5 4 4 4 4 3 3 4 4 3 3 4 6 9 6 7 10 7 9 6 4 4 4 3 3 3 4 5 5 6 6 5 3 1 4 6 5 5 5 4 4 4 4 4 4 3 3 3 3 3 2 1 1 1 2 2 2 2 2 3 4 4 4 4 3 3 2 3 4 6 7
13 13 11 11 12 12 13 13 12 10 10 10 9 8 7 5 4 3 3 7 6 5 5 4 5 8 7 7 6 5 7 3 6 7 7 5 5 4 4 3 3 4 3 4 4 4 4 2 1 2 4 4 4 4 3 4 4 4 4 4 4 4 4 4 3 2 2 2 3 3 3 3 3 2 1 3 3 4 5 5 3 4 5 6 6
11 10 10 10 11 12 11 11 12 12 12 11 10 11 10 8 6 6 7 7 7 7 7 8 7 7 7 6 6 7 7 5 4 5 5 5 3 4 3 2 3 3 4 3 3 1 1 3 3 3 2 2 1 1 3 4 2 3 4 3 4 5 5 5 5 4 3 2 2 2 1 1 2 4 4 4 3 6 6 4 6 6 6 6 7
12 10 11 12 13 12 11 13 12 12 10 9 10 10 10 10 9 9 9 8 8 9 9 8 8 7 7 6 6 6 6 6 7 7 4 4 2 2 3 2 2 2 4 4 3 3 2 1 2 3 3 3 2 1 4 5 5 3 2 3 4 5 5 5 6 6 5 5 4 3 2 3 3 5 4 5 4 4 5 6 4 6 5 7 8
11 10 11 13 13 13 13 12 12 11 11 10 9 10 11 10 9 9 8 9 10 10 9 8 7 7 7 6 5 7 7 5 5 4 5 3 2 3 1 2 3 3 3 4 4 3 3 3 2 2 3 2 2 5 5 3 2 3 1 3 4 4 5 5 6 6 5 5 5 4 3 3 4 4 4 5 2 1 1 1 3 2 1 6 6
9 9 11 12 12 11 12 12 12 11 11 12 11 11 11 10 10 8 9 11 11 10 10 10 8 7 7 6 6 7 6 5 4 6 5 4 2 2 3 3 2 2 4 3 3 3 3 3 3 3 2 2 2 6 7 6 6 4 1 2 3 4 5 5 5 6 5 5 5 4 4 3 3 3 3 4 5 4 4 4 5 6 7 5 3
10 10 11 12 10 10 10 12 12 12 13 11 11 11 11 10 10 11 12 11 12 12 11 11 11 10 8 8 8 8 7 6 5 5 5 5 3 3 3 3 3 3 2 2 2 2 2 2 2 3 3 2 2 6 8 7 7 6 4 1 2 2 3 3 4 4 4 4 5 5 5 5 5 5 4 4 5 5 6 6 5 4 3 3 3
11 13 12 10 10 10 10 12 12 12 11 11 12 11 10 11 12 14 12 13 12 13 12 11 11 10 9 9 8 8 9 8 8 8 7 7 6 4 4 3 3 3 3 4 4 3 2 2 2 2 1 1 1 6 5 6 6 6 6 3 3 3 3 2 3 3 4 4 4 5 6 6 5 6 5 6 7 7 6 5 5 4 3 2 3
11 12 11 10 10 11 11 10 8 10 11 12 11 8 11 12 12 12 12 11 11 14 12 11 12 11 11 10 9 9 8 8 8 7 8 8 7 6 5 4 4 4 3 3 2 2 3 3 3 2 1 0 4 6 6 6 6 5 5 3 3 3 4 4 3 3 3 4 5 5 6 6 6 6 7 9 7 7 7 7 6 5 4 4 5
12 11 10 10 10 10 10 9 10 11 11 11 9 9 10 11 13 11 12 11 12 13 11 11 11 11 10 10 9 9 9 9 9 9 8 7 7 6 5 3 5 6 6 5 4 3 2 3 3 3 2 2 2 4 5 5 5 6 4 1 2 2 3 4 4 4 4 4 4 6 6 6 5 5 9 11 8 8 8 7 7 6 5 4 4
10 9 9 9 9 9 10 10 11 13 11 9 10 9 10 13 12 11 12 13 13 12 10 10 10 10 10 10 10 9 10 9 10 10 9 8 7 6 6 4 6 7 7 6 5 5 5 5 6 6 5 4 4 5 4 4 2 1 4 2 2 2 3 4 4 4 4 4 5 4 5 6 5 4 11 11 11 10 8 8 8 7 7 6 5
9 8 7 7 8 10 10 10 11 12 10 9 9 10 12 12 10 10 11 12 12 11 10 10 9 8 9 9 9 9 9 8 8 8 7 8 8 7 6 6 5 5 5 4 4 6 6 6 6 5 5 4 4 4 3 3 2 2 2 2 2 2 4 4 3 3 4 4 4 5 8 9 9 6 13 12 13 11 7 7 8 7 7 7 6
9 8 7 7 7 8 10 11 11 9 7 7 8 11 12 10 9 9 11 11 9 9 8 7 7 8 8 8 7 8 8 8 8 7 7 6 4 6 7 7 8 6 5 5 5 6 7 6 5 5 5 5 5 4 4 4 3 3 1 2 2 4 4 4 3 3 4 4 4 4 5 10 9 7 12 13 14 12 9 8 7 8 8 8 8
7 8 8 7 7 8 9 9 7 7 6 6 5 9 10 8 8 10 11 8 7 7 8 7 7 9 9 9 8 8 8 7 7 6 5 5 6 5 5 7 6 5 6 6 5 5 7 7 7 6 6 7 6 5 5 5 5 4 3 2 1 2 4 5 4 4 4 4 4 3 3 5 7 6 10 13 13 14 10 9 10 10 9 10 11
8 8 8 8 8 9 9 9 8 7 6 6 6 10 9 8 9 10 8 6 6 6 6 7 8 9 8 8 8 8 7 6 6 6 6 6 6 5 5 4 4 4 4 4 4 4 5 5 5 5 6 6 6 8 5 6 5 5 4 2 1 1 2 3 4 4 4 4 4 4 3 6 3 3 6 9 11 13 13 8 8 6 14 17 11
7 8 7 8 7 8 8 8 7 7 6 7 9 11 9 8 10 8 6 6 5 5 6 6 7 7 7 7 7 8 7 5 6 6 7 7 6 6 5 5 3 2 3 5 5 4 5 5 5 5 5 6 6 7 10 7 7 5 3 2 3 4 2 3 3 4 4 4 4 4 2 7 2 2 5 6 6 8 6 5 7 13 16 15 11
7 8 7 9 10 8 8 8 7 7 7 6 7 9 8 9 8 5 5 5 6 5 6 6 6 6 6 7 7 7 6 6 6 6 6 6 6 5 5 5 4 4 5 5 5 5 5 5 5 5 5 6 6 6 7 8 7 7 4 5 3 5 5 4 4 4 3 3 3 3 3 4 3 3 4 5 6 6 3 4 5 9 14 13 9
7 6 6 7 9 10 9 9 7 7 6 6 6 8 8 8 5 4 5 5 5 6 6 6 6 6 6 5 5 5 6 6 6 6 6 6 6 6 6 5 5 6 6 6 5 6 6 6 6 5 5 5 5 5 5 6 7 7 7 6 6 6 7 6 4 3 3 3 4 5 5 4 5 6 7 8 6 5 4 4 5 10 9 7 7
6 6 6 7 8 8 9 10 9 7 7 7 7 8 9 5 3 4 3 3 4 5 6 6 6 6 6 6 6 6 6 7 7 6 6 5 5 5 5 5 5 5 4 4 4 4 4 4 5 5 5 5 5 5 5 5 6 7 5 4 4 5 3 3 0 3 5 6 5 6 7 7 7 6 5 4 4 3 5 6 5 3 4 6 6
6 4 3 5 7 8 9 9 9 7 7 7 8 7 6 5 5 4 4 4 5 6 6 6 5 6 5 5 6 6 5 6 6 6 6 6 5 5 5 5 5 6 6 6 5 5 5 5 5 5 5 5 3 4 4 5 5 6 6 6 5 3 3 3 2 2 3 3 3 1 2 5 8 10 11 11 11 11 9 6 5 1 4 4 2
4 3 4 6 7 7 7 7 7 5 6 7 7 7 6 6 5 4 5 6 6 6 6 6 6 5 5 4 5 4 4 5 5 5 5 5 5 6 6 6 6 6 6 6 6 5 5 5 5 4 4 4 5 5 6 8 8 8 8 6 5 4 4 5 5 3 1 2 4 5 5 3 4 6 5 5 6 7 8 6 4 3 4 2 2
4 3 4 5 6 6 6 7 6 5 5 6 7 6 6 6 5 5 5 7 6 6 6 6 5 5 5 4 4 5 5 4 5 5 6 6 5 5 5 5 7 5 5 5 5 4 5 4 4 4 4 4 5 5 6 7 8 8 7 7 7 6 5 6 4 2 3 2 2 3 3 3 3 3 3 3 4 6 5 6 8 6 5 3 3
3 3 4 5 5 6 6 5 4 3 4 5 6 6 6 5 5 4 5 6 6 6 6 6 6 6 5 5 5 6 5 5 5 5 5 7 9 11 8 5 5 6 7 8 7 5 5 4 4 2 3 4 4 5 11 14 13 12 11 10 12 13 13 10 6 7 6 3 3 4 3 3 3 4 5 6 5 5 6 5 5 6 5 7 5
3 4 4 5 4 4 5 5 4 3 4 5 5 6 6 5 5 4 5 5 5 5 5 5 5 6 5 4 5 5 5 5 5 5 5 4 4 7 10 11 9 7 6 6 5 4 4 5 4 4 2 3 7 9 10 11 13 13 12 12 12 11 10 9 6 4 3 5 4 4 3 3 3 5 5 5 5 4 5 6 6 6 6 8 8
Wind_Direction
175 146 136 150 150 152 146 151 160 141 143 153 153 153 154 160 150 150 148 149 149 150 150 148 146 140 141 156 156 152 145 143 152 159 176 173 175 175 176 172 169 169 175 173 173 165 163 163 167 173 183 184 178 174 168 157 148 149 140 141 142 135 128 136 131 127 111 90 85 82 74 62 63 65 71 76 86 97 116 117 109 112 109 107 114
145 148 143 147 151 154 147 154 162 161 158 159 165 161 156 151 150 148 143 146 150 151 146 151 154 162 159 158 149 147 146 153 156 161 169 174 180 181 180 176 173 173 174 180 176 168 162 164 174 177 190 182 162 147 150 148 150 148 143 131 147 151 141 153 149 153 139 134 127 107 86 87 88 94 98 94 96 97 109 129 123 105 106 117 136
183 169 160 158 152 152 153 157 163 165 161 167 167 163 158 157 145 143 144 151 150 145 148 160 155 157 153 151 151 143 147 156 159 164 169 172 179 181 179 177 175 178 175 178 173 170 167 168 173 175 188 163 154 147 149 155 166 166 166 149 140 142 143 165 156 283 148 142 134 137 134 126 119 99 85 93 104 111 113 103 105 111 112 115 124
189 178 169 162 161 158 158 159 159 159 162 165 156 159 162 158 143 145 150 154 152 152 142 145 149 146 141 144 144 145 152 152 153 158 168 173 174 175 177 181 181 178 176 174 170 163 166 170 166 174 169 170 170 155 162 169 169 179 172 162 160 152 164 172 185 206 176 159 160 202 141 170 136 100 88 63 78 92 101 100 100 100 107 112 117
194 180 169 164 163 163 158 156 156 157 163 158 152 155 157 153 142 142 149 150 152 146 139 135 131 129 123 125 128 121 124 142 151 161 168 171 167 174 177 183 178 176 174 174 163 157 163 168 172 171 167 160 174 156 166 178 185 180 186 177 183 176 171 174 184 201 190 6 154 138 148 198 121 131 117 81 57 75 78 93 90 103 113 106 103
204 191 177 167 166 158 157 157 157 156 158 161 152 144 141 146 150 154 147 147 144 141 140 139 149 148 144 145 145 148 151 164 174 170 169 170 173 169 168 175 173 170 169 165 160 159 165 173 175 176 173 168 173 174 170 182 194 192 189 200 199 196 185 174 179 195 192 53 341 337 5 314 161 157 180 124 65 63 80 79 99 93 98 101 103
156 188 170 162 164 162 161 161 162 161 157 155 148 140 145 150 158 154 147 142 140 142 145 148 158 165 165 165 164 163 164 172 173 169 169 168 161 162 157 160 164 159 154 160 160 167 170 173 177 187 179 176 178 178 176 189 194 202 193 207 207 201 197 195 185 177 166 194 292 312 329 29 149 157 162 135 132 109 84 86 83 88 88 100 104
195 192 177 168 163 164 166 162 161 155 154 153 149 139 148 148 145 150 145 142 144 146 153 166 168 172 170 168 167 171 172 162 162 162 159 156 155 148 146 144 138 150 155 164 166 168 171 169 176 182 185 180 183 184 179 170 175 191 221 220 218 208 207 217 187 178 183 184 199 209 120 116 149 314 160 163 143 136 117 96 96 94 85 68 60
205 187 171 166 162 161 163 162 162 148 163 167 149 142 148 143 143 151 149 145 149 156 165 176 176 171 171 170 167 167 157 150 150 151 150 148 137 130 132 135 121 113 151 150 154 161 163 168 173 178 185 177 189 177 177 175 189 195 211 215 216 212 216 222 196 193 204 178 181 173 155 142 145 133 145 139 146 139 132 129 114 89 80 72 72
195 162 154 154 155 156 159 147 156 148 161 157 143 138 148 148 151 157 151 151 156 165 175 177 170 161 160 161 148 151 152 147 148 146 146 148 135 134 130 142 151 153 143 151 159 165 163 161 165 160 153 147 163 147 144 165 184 194 214 228 222 211 202 214 222 215 207 180 193 162 163 151 156 150 165 161 144 151 152 147 139 132 103 55 59
131 128 134 139 136 152 137 145 147 136 158 154 152 143 147 149 157 164 157 157 164 173 177 172 167 167 163 158 149 151 154 148 147 147 146 146 146 140 148 146 152 148 151 150 147 141 133 138 138 135 130 127 136 146 160 171 171 181 162 200 217 212 193 193 205 220 205 180 189 191 185 182 175 183 173 170 156 144 142 140 129 116 117 97 50
118 114 104 82 95 111 135 151 143 153 165 155 159 146 150 152 159 161 162 163 172 175 179 165 163 164 159 155 150 147 152 157 159 155 156 151 149 149 142 142 141 135 141 139 130 128 128 126 120 126 128 137 137 129 142 163 161 160 158 174 175 188 184 184 187 184 189 180 193 202 211 204 183 183 165 164 158 145 150 135 125 130 109 93 100
110 110 114 124 161 114 143 160 148 165 191 162 163 148 149 154 161 163 167 169 172 175 175 161 162 161 160 154 146 148 151 148 147 146 151 152 152 150 155 152 142 144 147 143 131 141 139 136 143 142 135 122 114 129 127 142 150 151 141 151 162 174 179 186 179 178 183 191 191 192 209 193 176 128 149 154 138 143 141 138 137 142 124 121 122
135 141 146 140 145 178 179 186 167 157 182 180 175 158 153 155 160 161 167 173 166 168 166 166 167 161 158 151 147 150 145 145 145 147 151 149 152 159 163 155 153 149 150 150 141 142 131 124 125 115 111 119 121 109 111 121 138 147 139 144 150 156 165 184 176 162 176 178 179 186 196 182 121 133 145 147 148 152 149 143 134 123 128 126 127
147 143 144 142 155 170 192 216 180 155 164 181 181 179 162 159 133 99 58 16 158 161 171 178 167 158 156 149 151 153 147 152 150 149 154 155 162 163 160 149 144 144 147 130 136 130 120 120 119 122 125 122 123 120 115 122 128 122 103 102 103 112 130 147 127 149 162 176 191 204 174 177 141 149 156 154 157 159 156 152 143 134 132 130 124
145 143 139 124 141 160 168 209 182 171 163 175 176 176 171 137 117 123 128 109 292 226 183 174 167 161 156 156 159 152 144 143 143 152 160 163 161 165 154 147 128 128 122 135 138 142 140 133 131 126 129 130 129 131 136 126 112 104 98 91 91 88 104 101 109 128 136 160 180 175 184 166 146 153 164 156 159 157 154 156 158 143 140 136 137
136 137 144 131 145 181 181 188 153 171 164 168 174 169 152 141 147 142 141 163 197 195 192 162 163 162 165 164 158 154 153 157 159 163 162 153 148 147 137 133 123 128 133 136 140 144 143 141 137 133 132 131 128 123 117 112 109 100 100 98 93 92 87 85 83 98 114 145 146 170 177 150 146 147 157 150 144 153 155 159 159 137 136 135 147
133 139 140 143 143 159 175 170 156 177 154 164 157 161 156 162 156 157 162 185 186 165 160 161 161 171 167 164 162 160 161 157 152 154 152 147 142 136 129 136 142 134 137 143 146 147 145 149 134 132 133 131 124 116 112 117 114 98 93 88 94 106 102 96 89 99 111 120 128 141 144 147 139 161 153 146 147 148 148 147 129 120 128 143 147
122 134 144 163 161 147 161 173 166 162 174 163 144 133 158 173 173 169 171 170 158 162 172 171 173 167 165 166 162 158 157 153 150 148 152 154 154 156 153 138 136 142 144 149 155 155 154 146 136 137 137 131 125 116 114 110 108 107 103 103 117 119 103 96 88 95 105 123 126 123 128 127 145 144 140 143 142 146 143 141 118 105 56 113 145
117 140 158 176 176 163 160 174 168 158 164 161 152 153 173 179 166 153 137 168 190 160 161 162 166 152 147 148 157 160 157 158 153 154 159 156 153 154 148 150 154 153 151 156 160 162 156 147 146 140 135 132 124 114 111 110 103 96 104 104 97 95 92 89 98 102 113 124 127 125 126 132 142 146 143 144 149 148 146 138 133 118 122 119 143
123 139 158 151 168 171 168 173 175 152 140 137 149 170 178 170 170 163 176 177 179 181 181 168 155 157 156 163 159 155 155 158 159 165 159 152 150 155 156 147 143 154 151 158 165 161 155 151 148 146 139 134 126 119 117 114 109 103 91 92 98 99 101 95 95 95 102 112 110 116 118 119 142 143 142 148 159 160 159 149 151 136 127 160 161
89 68 66 70 67 86 53 76 102 161 155 145 150 175 170 161 172 178 184 189 176 180 180 165 168 159 164 161 158 157 161 163 162 163 156 153 155 157 144 147 156 154 164 158 162 152 153 152 145 137 129 129 128 125 125 119 113 106 95 81 100 106 102 101 91 87 89 90 98 113 115 122 138 138 149 162 163 174 183 184 176 182 156 163 199
78 81 81 74 59 57 53 65 113 174 171 140 137 164 225 185 181 184 191 190 186 177 171 169 166 165 163 155 152 157 161 163 162 164 163 159 153 145 153 158 157 157 168 159 151 153 152 150 141 133 134 136 133 129 130 126 120 118 115 108 106 114 119 120 114 110 109 114 114 108 120 129 137 139 150 149 159 183 195 204 198 195 189 177 169
55 48 45 48 57 63 83 88 70 69 82 80 130 187 215 215 197 194 186 179 179 174 174 174 165 162 158 156 160 160 162 164 169 170 165 156 150 152 163 163 157 159 163 136 134 141 143 147 139 137 144 145 142 138 139 137 136 133 130 127 130 133 128 119 118 125 127 124 116 116 118 138 152 155 162 170 185 195 205 214 209 189 192 186 180
58 54 51 47 50 43 49 73 65 59 76 82 157 129 133 126 156 147 150 168 181 168 172 173 161 155 161 164 162 161 165 170 172 165 158 151 153 156 160 160 153 161 155 135 127 133 140 151 149 152 152 156 156 149 142 135 130 132 128 125 130 133 136 131 116 120 128 128 130 126 137 144 155 154 160 189 188 200 213 219 226 211 203 190 186
65 60 55 52 47 43 38 50 65 62 73 85 73 93 92 115 132 143 158 170 177 183 168 152 163 158 162 171 167 165 166 170 165 155 151 154 152 154 154 154 160 153 133 133 144 153 158 163 161 159 160 159 158 154 149 142 134 132 127 118 119 129 137 139 130 123 128 126 126 130 142 156 161 163 168 168 184 194 194 207 207 213 201 183 191
63 61 58 54 47 45 39 32 62 69 66 74 86 100 97 97 86 83 98 143 173 151 150 158 172 169 154 156 164 151 117 77 51 35 79 107 127 145 158 155 151 141 135 130 138 146 156 160 162 160 159 156 156 155 145 139 137 137 138 138 143 148 142 128 122 131 123 119 130 133 147 164 169 159 159 171 174 179 194 197 187 182 190 179 183
65 59 58 52 47 40 37 39 46 55 59 75 71 69 69 71 86 88 107 120 112 134 150 162 178 137 159 160 155 103 96 121 134 132 117 107 107 120 121 123 138 142 153 155 156 172 162 154 160 167 157 157 157 159 153 146 142 141 143 148 155 163 153 140 141 146 164 165 165 163 164 173 173 169 169 165 174 177 184 197 187 186 176 178 181
65 66 55 53 54 50 46 43 41 37 45 44 45 46 58 65 59 58 55 67 70 74 77 85 78 68 56 61 67 77 113 181 122 122 113 110 117 111 109 110 116 118 131 143 141 159 148 146 130 129 146 152 154 151 157 158 154 155 159 158 160 168 171 160 159 164 183 189 183 183 192 188 198 186 215 194 194 180 177 185 188 190 184 186 184
64 63 65 60 58 52 44 43 42 35 39 41 39 36 35 45 61 54 60 65 69 77 83 74 72 76 76 83 91 95 110 108 79 74 81 93 44 96 67 86 113 114 114 103 107 91 145 165 154 117 99 98 96 114 129 156 181 171 169 159 160 171 178 178 174 175 184 202 210 205 204 352 224 186 192 201 204 219 257 268 182 187 191 194 189
66 48 54 58 56 49 44 46 42 36 31 40 46 47 46 38 31 45 57 61 67 74 80 88 89 82 77 70 80 89 96 97 120 129 106 119 170 356 68 90 63 77 108 103 107 132 151 175 161 145 130 133 136 91 139 166 159 148 178 182 186 180 180 187 191 195 195 190 195 202 207 189 197 168 187 193 202 227 240 263 228 207 216 202 189
62 56 57 60 57 49 44 45 42 38 39 37 43 52 53 45 41 39 36 47 52 55 62 70 76 85 87 80 60 79 81 84 91 95 111 59 118 131 149 128 135 130 102 106 129 150 157 162 163 145 136 132 142 106 129 142 158 160 235 220 198 194 191 198 204 208 210 201 199 203 212 200 212 215 179 165 140 60 76 102 122 106 347 336 331
50 54 66 64 59 55 51 50 51 46 45 39 48 59 55 48 46 35 50 51 50 48 49 46 52 72 79 89 103 95 90 89 95 103 114 150 116 107 92 96 91 67 74 91 141 169 162 156 160 147 122 127 181 124 133 136 149 151 126 286 218 216 211 211 212 216 219 213 207 209 216 212 201 155 226 198 168 143 104 97 94 84 47 28 6
48 52 54 62 61 58 56 56 58 56 52 43 45 55 57 57 59 53 54 52 54 46 42 41 38 32 44 77 92 91 78 75 71 88 94 97 91 70 67 66 85 93 100 128 173 153 141 151 139 129 143 163 211 127 142 146 144 136 114 167 246 249 252 240 230 224 222 220 215 219 226 218 205 202 208 199 185 165 158 156 164 162 131 108 66
52 52 49 50 59 62 61 57 52 51 52 52 44 42 58 56 55 58 54 55 53 53 43 38 41 34 31 35 54 73 77 76 81 78 82 89 93 92 78 73 91 120 162 171 166 162 155 141 119 108 160 196 79 108 129 134 137 141 135 164 215 231 247 250 248 240 236 232 224 226 233 240 213 207 200 191 191 184 176 167 154 133 123 90 46
44 46 49 50 48 53 54 55 48 53 54 58 53 32 50 52 52 52 54 51 53 54 43 36 39 38 37 33 38 49 51 59 59 59 72 74 71 70 75 83 102 114 117 121 111 115 120 123 131 135 160 341 84 92 113 126 139 149 160 213 222 230 238 241 245 242 243 237 233 231 236 234 227 219 168 183 209 186 176 167 153 142 131 98 65
51 44 41 44 49 53 45 47 52 57 59 52 47 46 50 55 51 43 47 46 50 52 40 35 37 32 35 36 40 46 48 48 52 56 51 56 56 50 46 48 91 82 80 72 63 63 73 99 106 94 54 40 63 102 104 114 129 149 190 215 223 229 244 255 254 257 246 236 234 232 237 244 223 224 156 180 189 193 181 172 162 151 140 122 99
76 48 37 37 39 44 43 47 50 50 44 49 49 50 57 59 54 43 45 46 47 44 36 36 34 27 27 31 36 44 52 49 51 51 51 49 49 43 32 23 66 71 65 57 54 59 50 40 35 37 29 25 34 58 52 67 79 103 312 288 265 259 259 265 261 242 246 246 245 231 264 252 240 212 154 180 183 194 190 178 167 158 149 138 126
64 69 53 37 41 46 46 49 50 48 33 33 56 59 59 58 54 55 53 49 43 43 38 34 30 27 31 31 32 34 39 44 50 44 40 50 51 42 28 18 30 72 80 78 68 68 56 46 44 54 28 37 57 74 82 91 99 162 250 276 266 270 270 257 248 244 221 240 244 210 209 245 254 202 162 182 189 202 195 180 174 157 155 150 148
77 69 69 57 49 58 53 48 46 38 23 23 43 66 62 59 53 57 57 52 47 43 41 39 38 40 41 37 34 39 38 36 40 41 35 31 32 51 41 37 15 13 41 51 66 79 79 65 57 65 76 64 61 79 108 139 151 159 277 294 290 282 278 272 253 271 279 260 238 252 194 205 235 180 177 186 194 207 205 182 173 187 174 163 154
83 81 73 65 50 57 58 55 51 37 32 35 37 64 63 56 56 59 53 45 40 43 44 42 37 41 42 39 38 39 43 47 42 41 40 40 37 40 48 52 32 13 36 30 27 56 71 71 57 41 38 45 37 38 100 122 132 148 143 195 251 294 306 304 300 289 278 282 282 270 278 173 210 209 188 194 198 207 213 197 193 197 190 147 149
72 79 81 73 56 56 63 61 54 61 52 46 56 68 68 62 61 62 51 34 36 34 36 33 38 41 40 38 37 32 30 34 36 37 43 45 36 38 43 52 65 43 40 48 30 41 66 68 61 47 45 37 50 41 27 88 68 95 109 204 264 57 23 311 312 310 312 308 316 332 329 63 111 226 243 221 216 207 212 215 204 135 118 139 153
86 72 64 82 78 63 57 57 47 45 43 55 64 68 64 57 59 55 52 54 49 39 41 43 37 38 34 34 31 31 29 24 28 34 46 50 41 41 35 37 43 61 71 59 52 47 61 65 60 48 39 35 28 46 30 24 44 40 87 182 268 293 315 288 312 312 317 323 324 324 19 51 35 189 204 210 233 281 261 234 122 138 148 143 135
86 91 93 87 86 77 70 58 55 50 43 42 65 72 65 62 53 32 40 45 49 50 52 54 49 45 35 29 24 24 22 21 24 32 47 53 49 49 48 39 31 35 37 43 41 41 54 62 60 51 47 38 32 32 43 25 14 17 360 344 314 283 275 285 306 293 303 317 312 339 26 61 82 127 159 186 189 183 279 25 125 137 151 155 151
92 91 88 89 92 94 88 75 63 59 51 49 55 74 70 63 36 25 38 49 49 47 51 49 48 44 41 39 37 32 24 21 20 25 32 33 35 34 48 35 34 38 36 39 30 27 35 40 46 39 28 26 20 24 36 49 33 19 12 22 354 320 286 273 280 321 346 10 58 81 95 91 99 104 112 125 114 118 86 126 149 162 158 158 158
91 85 80 90 92 86 83 79 68 59 62 55 54 63 70 64 45 43 48 60 64 65 62 59 54 46 39 44 46 44 41 33 31 34 38 36 32 36 38 37 39 44 46 52 44 32 37 38 38 31 16 5 6 3 13 17 15 12 16 30 9 360 314 233 288 94 104 114 115 114 116 121 120 126 132 112 110 86 88 124 143 175 186 190 171
82 72 80 83 80 78 76 75 69 54 59 62 62 61 60 58 54 55 64 70 72 73 73 68 65 63 54 44 44 37 45 44 33 35 40 39 35 38 38 33 27 21 26 28 29 28 27 27 26 16 357 339 350 4 353 357 12 4 355 347 338 315 188 172 172 147 147 123 131 136 106 101 104 98 103 113 116 110 103 94 118 107 339 342 101
81 78 79 82 79 82 82 79 73 58 57 57 55 51 45 45 52 56 73 75 68 64 68 65 60 62 57 52 61 46 46 60 45 37 36 41 39 34 40 34 23 14 9 21 23 24 19 11 8 1 351 344 344 352 10 2 351 349 340 332 323 306 291 277 276 248 224 104 109 108 111 111 107 103 106 120 124 122 123 129 126 139 146 122 75
101 75 68 86 93 88 84 80 72 56 53 54 50 46 39 41 44 54 67 77 77 71 65 57 54 58 58 49 51 46 48 58 72 69 61 42 37 46 49 56 36 20 17 9 14 21 12 359 347 352 351 348 344 351 1 353 321 311 303 312 320 316 311 300 281 183 119 137 152 165 167 157 149 131 139 129 139 131 128 134 135 138 142 149 151
87 89 97 103 103 110 105 96 86 65 56 54 49 46 45 46 48 53 66 77 76 72 64 57 55 52 44 40 40 41 35 43 50 61 82 89 66 51 39 43 66 45 50 47 34 38 8 343 330 334 348 331 341 335 329 318 311 308 300 276 266 270 276 273 281 178 211 217 208 222 214 197 170 161 157 160 168 162 150 147 137 139 135 136 139
118 115 106 104 108 107 107 94 81 68 60 54 54 49 50 47 47 51 61 70 72 72 69 68 61 55 35 36 45 41 37 36 37 42 53 62 101 95 65 42 36 33 38 43 38 31 12 353 354 344 344 208 264 285 295 304 308 307 302 301 299 292 281 269 220 172 217 228 232 228 221 211 199 192 184 182 175 162 157 143 144 153 162 148 140